ROMMA est une association bénévole à but non lucratif. Votre soutien est indispensable : ADHERER à ROMMA ou FAIRE un DON

Crêts du Salève - (74, Haute-Savoie)

Salève (1270 m)   Longitude: 6° 10' 28'' E   Latitude: 46° 7' 42'' N Station romma n°73
 

Détail journalier du     <<     >>

Température Precipitation Humidité Vent Dir Rafale Dir. rafale Ensol.
Heure (°C) (mm) (%) (km/h) (km/h) (min)
01:00 7.309416E21E0
02:00 8.308513E19E0
03:00 8.70819ESE15E0
04:00 8.70822ESE6SE0
05:00 8.20868O18O0
06:00 7.50.6955O16ONO0
07:00 7.50997NO16NO0
08:00 7.509913NO19NO0
09:00 7.70998N15N0
10:00 8.20977NNE18NNO0
11:00 9.10958N15N0
12:00 9.80926N19ENE0
13:00 9.90959NNO19NNO0
14:00 10.108910NO19NO0
15:00 11.208910N21N40
16:00 11.50909N23ONO20
17:00 11.80866NNE16NNE0
18:00 11.80875NNO15NNO0
19:00 11.10.2917NNO13NNO0
20:00 10.508911N19N0
21:00 9.90959N21N0
22:00 9.709510NE19NE0
23:00 9.609614NE21NE0
minuit 9.809115NNE19NE0

Graphique du 14-06-2020

 

Serveur OMMA